Weather History for Norwood, MA

Change the Weather History Date:

Saturday, September 21, 2013

  Actual Average Record
Temperature  
Mean Temperature 62 °F -  
Max Temperature 75 °F 70 °F 81 °F (2002)
Min Temperature 50 °F 47 °F 35 °F (2010)
Degree Days  
Heating Degree Days 2    
Growing Degree Days 12 (Base 50)    
Moisture  
Dew Point 57 °F    
Average Humidity 86    
Maximum Humidity 100    
Minimum Humidity 53    
Precipitation  
Precipitation 0.00 in - - ()
Sea Level Pressure  
Sea Level Pressure 29.95 in    
Wind  
Wind Speed 5 mph (South)    
Max Wind Speed 16 mph    
Max Gust Speed 26 mph    
Visibility 6 miles    
Events Fog    
Averages and records for this station are not official NWS values.
T = Trace of Precipitation, MM = Missing Value Source: NWS Daily Summary

Daily Weather History Graph

Daily Weather History Graph

Search for Another Location

Airport:

Trip Planner

Search our weather history database for the weather conditions in past years. The results will help you decide how hot, cold, wet, or windy it might be!

Date:

Astronomy

Sep. 21, 2013 Rise Set
Actual Time 6:31 AM EDT 6:43 PM EDT
Civil Twilight 6:03 AM EDT 7:11 PM EDT
Nautical Twilight 5:30 AM EDT 7:44 PM EDT
Astronomical Twilight 4:56 AM EDT 8:17 PM EDT
Moon 7:48 PM EDT (9/21) 8:49 AM EDT (9/21)
Length of Visible Light 13h 08m
Length of Day
12h 12m
Waning Gibbous, 94% of the Moon is Illuminated
Sep 21
Waning Gibbous
Sep 26
Last Quarter
Oct 4
New
Oct 11
First Quarter
Oct 18
Full

Hourly Weather History & Observations

Time (EDT) Temp. Dew Point Humidity Pressure Visibility Wind Dir Wind Speed Gust Speed Precip Events Conditions
12:53 AM 52.0 °F 50.0 °F 93% 30.03 in 3.0 mi Calm Calm - N/A   Clear
1:02 AM 51.8 °F 50.0 °F 94% 30.03 in 1.8 mi South 5.8 mph - N/A   Clear
1:12 AM 55.4 °F 53.6 °F 94% 30.03 in 3.0 mi South 8.1 mph - N/A   Clear
1:53 AM 57.9 °F 55.9 °F 93% 30.03 in 6.0 mi South 5.8 mph - N/A   Clear
2:02 AM 57.2 °F 57.2 °F 100% 30.03 in 6.0 mi SSW 5.8 mph - N/A   Scattered Clouds
2:11 AM 59.0 °F 57.2 °F 94% 30.02 in 7.0 mi SSW 6.9 mph - N/A   Mostly Cloudy
2:53 AM 60.1 °F 57.9 °F 93% 30.03 in 9.0 mi SW 6.9 mph - N/A   Overcast
3:53 AM 61.0 °F 57.9 °F 90% 30.03 in 10.0 mi WSW 3.5 mph - N/A   Overcast
4:22 AM 59.0 °F 57.2 °F 94% 30.02 in 9.0 mi SSW 3.5 mph - N/A   Scattered Clouds
4:53 AM 55.9 °F 54.0 °F 93% 30.01 in 4.0 mi Calm Calm - N/A   Clear
4:57 AM 55.4 °F 53.6 °F 94% 30.01 in 2.5 mi Calm Calm - N/A   Partly Cloudy
5:05 AM 53.6 °F 51.8 °F 94% 30.01 in 1.0 mi Calm Calm - N/A   Mist
5:12 AM 51.8 °F 50.0 °F 94% 30.01 in 0.8 mi Calm Calm - N/A   Mist
5:16 AM 51.8 °F 50.0 °F 94% 30.01 in 2.0 mi Calm Calm - N/A   Mostly Cloudy
5:23 AM 51.8 °F 50.0 °F 94% 30.00 in 4.0 mi Calm Calm - N/A   Mostly Cloudy
5:25 AM 51.8 °F 51.8 °F 100% 30.00 in 1.8 mi Calm Calm - N/A   Overcast
5:34 AM 51.8 °F 51.8 °F 100% 30.00 in 0.2 mi Calm Calm - N/A Fog Fog
5:49 AM 51.8 °F 48.2 °F 88% 29.99 in 0.8 mi Calm Calm - N/A   Mist
5:53 AM 50.0 °F 48.9 °F 96% 30.00 in 0.2 mi Calm Calm - N/A Fog Fog
6:24 AM 53.6 °F 51.8 °F 94% 30.00 in 2.0 mi Calm Calm - N/A   Overcast
6:35 AM 55.4 °F 55.4 °F 100% 30.00 in 0.8 mi Calm Calm - N/A   Mist
6:53 AM 57.0 °F 55.9 °F 96% 30.00 in 0.2 mi SSE 3.5 mph - N/A Fog Fog
7:19 AM 59.0 °F 57.2 °F 94% 30.00 in 2.0 mi South 3.5 mph - N/A   Overcast
7:30 AM 60.8 °F 59.0 °F 94% 30.00 in 3.0 mi SSE 3.5 mph - N/A   Overcast
7:53 AM 60.1 °F 59.0 °F 96% 30.00 in 5.0 mi South 3.5 mph - N/A   Overcast
8:02 AM 60.8 °F 59.0 °F 94% 29.99 in 2.0 mi South 6.9 mph - N/A   Overcast
8:20 AM 62.6 °F 60.8 °F 94% 30.00 in 10.0 mi South 3.5 mph - N/A   Overcast
8:32 AM 62.6 °F 60.8 °F 94% 30.00 in 10.0 mi South 4.6 mph - N/A   Mostly Cloudy
8:53 AM 64.0 °F 60.1 °F 87% 29.99 in 10.0 mi SSE 6.9 mph - N/A   Scattered Clouds
9:53 AM 68.0 °F 59.0 °F 73% 29.98 in 10.0 mi SSW 8.1 mph - N/A   Mostly Cloudy
10:53 AM 72.0 °F 60.1 °F 66% 29.95 in 10.0 mi South 8.1 mph 19.6 mph N/A   Mostly Cloudy
11:00 AM 71.6 °F 60.8 °F 69% 29.95 in 10.0 mi South 11.5 mph 20.7 mph N/A   Scattered Clouds
11:53 AM 72.0 °F 59.0 °F 64% 29.93 in 10.0 mi South 12.7 mph 19.6 mph N/A   Mostly Cloudy
12:53 PM 73.0 °F 60.1 °F 64% 29.91 in 10.0 mi South 10.4 mph 18.4 mph N/A   Overcast
1:53 PM 73.0 °F 60.1 °F 64% 29.88 in 10.0 mi SSW 15.0 mph 20.7 mph N/A   Overcast
2:53 PM 75.9 °F 61.0 °F 60% 29.86 in 10.0 mi South 12.7 mph 25.3 mph N/A   Partly Cloudy
3:53 PM 75.0 °F 57.0 °F 53% 29.84 in 10.0 mi SSW 16.1 mph 26.5 mph N/A   Partly Cloudy
4:53 PM 75.0 °F 61.0 °F 62% 29.82 in 10.0 mi South 12.7 mph 20.7 mph N/A   Mostly Cloudy
5:53 PM 73.0 °F 61.0 °F 66% 29.81 in 10.0 mi South 13.8 mph 19.6 mph N/A   Partly Cloudy
6:53 PM 71.1 °F 62.1 °F 73% 29.81 in 10.0 mi South 12.7 mph 20.7 mph N/A   Partly Cloudy
7:53 PM 68.0 °F 62.1 °F 81% 29.81 in 10.0 mi South 5.8 mph - N/A   Partly Cloudy
8:53 PM 70.0 °F 64.0 °F 81% 29.80 in 10.0 mi South 8.1 mph - N/A   Overcast
9:53 PM 70.0 °F 64.0 °F 81% 29.78 in 10.0 mi South 8.1 mph - N/A   Overcast
10:53 PM 70.0 °F 64.9 °F 84% 29.76 in 10.0 mi South 9.2 mph - N/A   Overcast
11:37 PM 71.6 °F 64.4 °F 78% 29.74 in 10.0 mi South 9.2 mph 21.9 mph N/A   Scattered Clouds
11:53 PM 71.1 °F 64.9 °F 81% 29.74 in 10.0 mi South 8.1 mph 23.0 mph N/A   Mostly Cloudy